Weather History for Pella, IA

Change the Weather History Date:

Sunday, February 24, 2013

  Actual Average (KOXV) Record (KOXV)
Temperature  
Mean Temperature 28 °F -  
Max Temperature 41 °F 38 °F 69 °F (2002)
Min Temperature 15 °F 20 °F -8 °F (1993)
Degree Days  
Heating Degree Days 37    
Moisture  
Dew Point 21 °F    
Average Humidity 72    
Maximum Humidity 90    
Minimum Humidity 52    
Precipitation  
Precipitation 0.00 in - - ()
Sea Level Pressure  
Sea Level Pressure 30.04 in    
Wind  
Wind Speed 3 mph (SE)    
Max Wind Speed 7 mph    
Max Gust Speed -    
Visibility 8 miles    
Events      
Averages and records for this station are not official NWS values.
T = Trace of Precipitation, MM = Missing Value Source: NWS Daily Summary

Daily Weather History Graph

Daily Weather History Graph

Search for Another Location

Airport:

Trip Planner

Search our weather history database for the weather conditions in past years. The results will help you decide how hot, cold, wet, or windy it might be!

Date:

Astronomy

Feb. 24, 2013 Rise Set
Actual Time 6:53 AM CST 5:56 PM CST
Civil Twilight 6:25 AM CST 6:24 PM CST
Nautical Twilight 5:53 AM CST 6:56 PM CST
Astronomical Twilight 5:21 AM CST 7:29 PM CST
Moon 5:08 PM CST (2/24) 5:51 AM CST (2/24)
Length of Visible Light 11h 59m
Length of Day
11h 03m
Waxing Gibbous, 99% of the Moon is Illuminated
Feb 24
Waxing Gibbous
Feb 25
Full
Mar 4
Last Quarter
Mar 11
New
Mar 19
First Quarter

Hourly Weather History & Observations

Time (CST) Temp. Windchill Dew Point Humidity Pressure Visibility Wind Dir Wind Speed Gust Speed Precip Events Conditions
12:15 AM 21.2 °F 14.9 °F 15.4 °F 78% 29.96 in 10.0 mi SSE 4.6 mph - N/A   Clear
12:35 AM 21.2 °F 14.9 °F 15.4 °F 78% 29.97 in 10.0 mi SSE 4.6 mph - N/A   Clear
12:55 AM 21.2 °F 14.9 °F 15.6 °F 79% 29.97 in 10.0 mi SSE 4.6 mph - N/A   Clear
1:15 AM 18.3 °F 10.2 °F 12.9 °F 79% 29.96 in 10.0 mi SE 5.8 mph - N/A   Clear
1:35 AM 19.4 °F 14.3 °F 15.1 °F 83% 29.99 in 10.0 mi SSW 3.5 mph - N/A   Clear
1:55 AM 19.4 °F 14.3 °F 14.9 °F 83% 29.99 in 10.0 mi South 3.5 mph - N/A   Clear
2:15 AM 19.4 °F 11.5 °F 14.9 °F 83% 29.98 in 10.0 mi South 5.8 mph - N/A   Clear
2:35 AM 18.9 °F 10.8 °F 14.2 °F 82% 29.98 in 10.0 mi SSE 5.8 mph - N/A   Clear
2:55 AM 16.5 °F - 12.7 °F 85% 29.98 in 7.0 mi Calm Calm - N/A   Clear
3:15 AM 16.5 °F - 13.6 °F 88% 29.98 in 7.0 mi Calm Calm - N/A   Clear
3:35 AM 18.3 °F - 15.8 °F 90% 29.98 in 7.0 mi Calm Calm - N/A   Clear
3:55 AM 17.6 °F - 14.4 °F 87% 29.98 in 7.0 mi Calm Calm - N/A   Clear
4:15 AM 16.7 °F 9.6 °F 13.8 °F 88% 30.00 in 7.0 mi South 4.6 mph - N/A   Clear
4:35 AM 17.4 °F 9.1 °F 14.0 °F 86% 30.00 in 7.0 mi South 5.8 mph - N/A   Clear
4:55 AM 15.6 °F 8.3 °F 12.2 °F 86% 30.00 in 7.0 mi South 4.6 mph - N/A   Clear
5:15 AM 17.6 °F 10.7 °F 14.4 °F 87% 30.00 in 7.0 mi South 4.6 mph - N/A   Clear
5:35 AM 17.6 °F 10.7 °F 14.0 °F 86% 30.01 in 7.0 mi South 4.6 mph - N/A   Clear
5:55 AM 16.7 °F 9.6 °F 13.3 °F 86% 30.02 in 7.0 mi South 4.6 mph - N/A   Clear
6:15 AM 16.7 °F 8.3 °F 13.8 °F 88% 30.02 in 7.0 mi South 5.8 mph - N/A   Clear
6:35 AM 16.5 °F 6.9 °F 13.8 °F 89% 30.03 in 7.0 mi South 6.9 mph - N/A   Clear
7:15 AM 15.6 °F 10.0 °F 12.9 °F 89% 30.04 in 5.0 mi SSE 3.5 mph - N/A   Clear
7:35 AM 16.7 °F - 14.0 °F 89% 30.04 in 5.0 mi Calm Calm - N/A   Clear
7:55 AM 17.6 °F - 13.8 °F 85% 30.04 in 5.0 mi Calm Calm - N/A   Clear
8:15 AM 20.1 °F - 15.1 °F 81% 30.04 in 7.0 mi Calm Calm - N/A   Clear
8:35 AM 22.8 °F 16.7 °F 16.0 °F 75% 30.05 in 7.0 mi South 4.6 mph - N/A   Clear
8:55 AM 24.8 °F - 16.7 °F 71% 30.06 in 7.0 mi Calm Calm - N/A   Clear
9:15 AM 26.2 °F 20.7 °F 17.2 °F 69% 30.06 in 7.0 mi South 4.6 mph - N/A   Clear
9:35 AM 28.2 °F - 18.1 °F 66% 30.06 in 7.0 mi Calm Calm - N/A   Clear
9:55 AM 29.8 °F - 19.2 °F 65% 30.06 in 10.0 mi Calm Calm - N/A   Clear
10:15 AM 32.7 °F - 19.9 °F 59% 30.06 in 10.0 mi Calm Calm - N/A   Clear
10:35 AM 34.0 °F - 20.5 °F 58% 30.07 in 10.0 mi Calm Calm - N/A   Clear
10:55 AM 33.8 °F 30.8 °F 21.0 °F 60% 30.07 in 7.0 mi ESE 3.5 mph - N/A   Clear
11:15 AM 34.9 °F - 21.0 °F 57% 30.07 in 7.0 mi Calm Calm - N/A   Clear
11:35 AM 37.0 °F - 22.3 °F 55% 30.07 in 7.0 mi Calm Calm - N/A   Clear
11:55 AM 37.8 °F - 22.1 °F 53% 30.07 in 7.0 mi Calm Calm - N/A   Clear
12:15 PM 38.5 °F 36.1 °F 22.6 °F 53% 30.07 in 10.0 mi SE 3.5 mph - N/A   Clear
12:35 PM 37.9 °F 34.4 °F 23.2 °F 55% 30.07 in 10.0 mi SE 4.6 mph - N/A   Clear
12:55 PM 38.3 °F 34.8 °F 22.8 °F 54% 30.07 in 10.0 mi SE 4.6 mph - N/A   Clear
1:15 PM 39.0 °F 34.8 °F 23.7 °F 54% 30.06 in 10.0 mi SE 5.8 mph - N/A   Clear
1:35 PM 40.1 °F 36.9 °F 23.9 °F 52% 30.06 in 10.0 mi SE 4.6 mph - N/A   Clear
1:55 PM 40.5 °F 37.3 °F 24.4 °F 53% 30.05 in 10.0 mi SE 4.6 mph - N/A   Clear
2:15 PM 41.5 °F - 25.0 °F 52% 30.04 in 10.0 mi Calm Calm - N/A   Clear
2:35 PM 41.2 °F 39.2 °F 25.3 °F 53% 30.03 in 10.0 mi East 3.5 mph - N/A   Clear
2:55 PM 40.8 °F 37.8 °F 25.5 °F 55% 30.03 in 10.0 mi ESE 4.6 mph - N/A   Clear
3:15 PM 40.5 °F 36.5 °F 25.5 °F 55% 30.03 in 10.0 mi East 5.8 mph - N/A   Clear
3:35 PM 40.8 °F 37.8 °F 25.7 °F 55% 30.02 in 10.0 mi East 4.6 mph - N/A   Clear
3:55 PM 41.9 °F 40.0 °F 26.2 °F 54% 30.03 in 10.0 mi East 3.5 mph - N/A   Clear
4:15 PM 41.2 °F - 25.3 °F 53% 30.03 in 10.0 mi Calm Calm - N/A   Clear
4:35 PM 41.0 °F 39.0 °F 25.9 °F 55% 30.03 in 10.0 mi East 3.5 mph - N/A   Clear
4:55 PM 40.3 °F 37.1 °F 26.2 °F 57% 30.02 in 10.0 mi ENE 4.6 mph - N/A   Clear
5:15 PM 38.7 °F 36.3 °F 26.8 °F 62% 30.03 in 10.0 mi ENE 3.5 mph - N/A   Clear
5:35 PM 37.6 °F 35.1 °F 27.1 °F 66% 30.03 in 10.0 mi ENE 3.5 mph - N/A   Clear
5:55 PM 36.7 °F 34.1 °F 27.1 °F 68% 30.03 in 10.0 mi ENE 3.5 mph - N/A   Clear
6:15 PM 36.5 °F - 27.3 °F 69% 30.04 in 10.0 mi Calm Calm - N/A   Clear
6:35 PM 35.6 °F 32.8 °F 27.0 °F 71% 30.05 in 10.0 mi ENE 3.5 mph - N/A   Clear
6:55 PM 35.4 °F 32.6 °F 26.6 °F 70% 30.06 in 10.0 mi East 3.5 mph - N/A   Clear
7:15 PM 35.1 °F 32.2 °F 26.6 °F 71% 30.07 in 10.0 mi East 3.5 mph - N/A   Clear
7:35 PM 34.7 °F 30.6 °F 26.2 °F 71% 30.07 in 10.0 mi East 4.6 mph - N/A   Clear
7:55 PM 33.8 °F 29.6 °F 26.1 °F 73% 30.06 in 10.0 mi East 4.6 mph - N/A   Clear
8:15 PM 33.4 °F 28.1 °F 26.1 °F 74% 30.07 in 10.0 mi East 5.8 mph - N/A   Clear
8:35 PM 32.9 °F 29.8 °F 25.7 °F 75% 30.07 in 10.0 mi East 3.5 mph - N/A   Clear
8:55 PM 32.0 °F 26.4 °F 25.5 °F 77% 30.07 in 7.0 mi ESE 5.8 mph - N/A   Clear
9:15 PM 31.5 °F 25.8 °F 25.7 °F 79% 30.07 in 7.0 mi ESE 5.8 mph - N/A   Clear
9:35 PM 31.8 °F 27.3 °F 25.7 °F 78% 30.08 in 7.0 mi ESE 4.6 mph - N/A   Clear
9:55 PM 30.9 °F 26.2 °F 25.7 °F 81% 30.08 in 7.0 mi ESE 4.6 mph - N/A   Clear
10:15 PM 30.0 °F - 25.3 °F 83% 30.09 in 7.0 mi Calm Calm - N/A   Clear
10:35 PM 29.3 °F 25.6 °F 25.5 °F 86% 30.08 in 7.0 mi East 3.5 mph - N/A   Clear
10:55 PM 30.0 °F 26.5 °F 26.1 °F 85% 30.08 in 7.0 mi East 3.5 mph - N/A   Scattered Clouds
11:15 PM 30.2 °F 25.4 °F 25.7 °F 83% 30.08 in 7.0 mi East 4.6 mph - N/A   Clear
11:35 PM 30.6 °F - 25.7 °F 82% 30.09 in 7.0 mi Calm Calm - N/A   Clear
11:55 PM 30.9 °F 27.5 °F 25.3 °F 80% 30.08 in 7.0 mi East 3.5 mph - N/A   Clear